Regional Weather Roundup
Issued by NWS

Home | Current Version | Previous Version | Graphics & Text | Print | Product List | Glossary On
Versions: 1 2 3 4 5 6 7 8 9 10 11 12 13 14 15 16 17 18 19 20 21 22 23 24 25 26 27 28 29 30 31 32 33 34 35 36 37 38 39 40 41 42 43 44 45 46 47 48 49 50
000
ASUS43 KLMK 280202
RWRKY
KENTUCKY REGIONAL WEATHER ROUNDUP
NATIONAL WEATHER SERVICE LOUISVILLE KY
1000 PM EDT WED APR 27 2016

NOTE "FAIR" INDICATES FEW OR NO CLOUDS BELOW 12,000 FEET
WITH NO SIGNIFICANT WEATHER AND/OR OBSTRUCTIONS TO VISIBILITY.

KYZ001>023-026-027-061>063-070>075-280300-
WESTERN AND SOUTH CENTRAL KENTUCKY

CITY           SKY/WX    TMP DP  RH WIND       PRES   REMARKS
PADUCAH        CLOUDY    66  62  87 SE7       29.69R
HENDERSON      CLOUDY    64  59  82 E5        29.71S
OWENSBORO      CLOUDY    63  63 100 E9        29.75S
HOPKINSVILLE   CLOUDY    64  62  93 SE5       29.75R
BOWLING GREEN  CLOUDY    65  63  93 CALM      29.79R
GLASGOW        NOT AVBL
$$

KYZ024-025-028>034-038-045-046-053-280300-
NORTH CENTRAL KENTUCKY

CITY           SKY/WX    TMP DP  RH WIND       PRES   REMARKS
LOUISVILLE/SDF TSTM      63  60  90 W12       29.81R FOG
LOUISVILLE/LOU TSTM      62  59  90 W10       29.82R FOG
FORT KNOX      RAIN      61  61  99 W6        29.80S FOG
$$

KYZ035>037-039>044-047>052-055>060-089>105-280300-
NORTHEAST KENTUCKY

CITY           SKY/WX    TMP DP  RH WIND       PRES   REMARKS
LEXINGTON      CLOUDY    63  60  90 SE5       29.80R
COVINGTON      LGT RAIN  60  59  96 E8        29.81F FOG
FRANKFORT      CLOUDY    64  60  87 E5        29.78R
$$

KYZ054-064>069-076>088-106>120-280300-
SOUTHEAST KENTUCKY

CITY           SKY/WX    TMP DP  RH WIND       PRES   REMARKS
JACKSON        PTCLDY    62  60  93 S3        29.84R
LONDON         LGT RAIN  64  61  90 VRB3      29.83R
SOMERSET       NOT AVBL
MIDDLESBORO    CLOUDY    68  66  94 CALM      29.85R THUNDER
MONTICELLO     CLOUDY    67  62  84 SE7       29.82R
$$





USA.gov is the U.S. government's official web portal to all federal, state and local government web resources and services.